TimePDT,TemperatureF,Dew PointF,Humidity,Sea Level PressureIn,VisibilityMPH,Wind Direction,Wind SpeedMPH,Gust SpeedMPH,PrecipitationIn,Events,Conditions,WindDirDegrees,DateUTC
12:28 AM,55.4,51.8,88,29.95,10.0,SSE,6.9,-,N/A,,Mostly Cloudy,150,2013-05-24 07:28:00
12:58 AM,55.9,50.9,83,29.92,10.0,SSE,5.8,-,N/A,,Overcast,160,2013-05-24 07:58:00
1:58 AM,56.5,50.7,81,29.91,10.0,SSE,6.9,-,N/A,,Overcast,160,2013-05-24 08:58:00
2:58 AM,56.5,50.2,79,29.91,10.0,SSE,6.9,-,N/A,,Overcast,160,2013-05-24 09:58:00
3:58 AM,56.7,50.4,79,29.91,10.0,South,4.6,-,N/A,,Overcast,170,2013-05-24 10:58:00
4:58 AM,56.8,49.1,75,29.91,10.0,SSE,5.8,-,N/A,,Overcast,150,2013-05-24 11:58:00
5:58 AM,57.0,48.9,74,29.93,10.0,SSE,5.8,-,N/A,,Overcast,150,2013-05-24 12:58:00
6:58 AM,57.9,48.7,71,29.95,10.0,SSE,5.8,-,N/A,,Overcast,150,2013-05-24 13:58:00
7:58 AM,58.6,48.6,69,29.96,10.0,SE,5.8,-,N/A,,Overcast,140,2013-05-24 14:58:00
8:58 AM,60.6,48.2,64,29.96,10.0,Variable,1.2,-,N/A,,Overcast,0,2013-05-24 15:58:00
9:18 AM,62.6,48.2,59,29.98,10.0,Calm,Calm,-,N/A,,Scattered Clouds,0,2013-05-24 16:18:00
9:58 AM,64.0,48.4,57,29.96,10.0,Variable,2.3,-,N/A,,Clear,0,2013-05-24 16:58:00
10:58 AM,66.2,47.5,51,29.96,10.0,Variable,4.6,-,N/A,,Clear,0,2013-05-24 17:58:00
11:58 AM,70.7,49.6,47,29.96,10.0,North,8.1,-,N/A,,Clear,10,2013-05-24 18:58:00
12:58 PM,72.5,50.4,46,29.95,10.0,WNW,9.2,-,N/A,,Partly Cloudy,300,2013-05-24 19:58:00
1:58 PM,74.5,50.0,42,29.94,10.0,Variable,4.6,-,N/A,,Partly Cloudy,0,2013-05-24 20:58:00
2:58 PM,75.6,50.5,41,29.92,10.0,NW,8.1,-,N/A,,Clear,320,2013-05-24 21:58:00
3:58 PM,77.9,51.8,40,29.90,10.0,WNW,11.5,-,N/A,,Clear,300,2013-05-24 22:58:00
4:58 PM,75.6,53.6,46,29.90,10.0,NW,16.1,-,N/A,,Clear,310,2013-05-24 23:58:00
5:58 PM,72.0,53.1,51,29.91,10.0,WNW,12.7,-,N/A,,Clear,300,2013-05-25 00:58:00
6:59 PM,68.4,52.3,57,29.91,10.0,NW,12.7,-,N/A,,Clear,310,2013-05-25 01:59:00
7:58 PM,64.2,52.0,64,29.92,10.0,NW,9.2,-,N/A,,Clear,310,2013-05-25 02:58:00
8:58 PM,61.2,50.7,69,29.94,10.0,WNW,5.8,-,N/A,,Clear,290,2013-05-25 03:58:00
9:58 PM,59.7,50.2,71,29.96,10.0,Calm,Calm,-,N/A,,Clear,0,2013-05-25 04:58:00
10:58 PM,57.9,48.6,71,29.97,10.0,North,2.3,-,N/A,,Clear,360,2013-05-25 05:58:00
11:58 PM,54.7,43.9,67,29.97,8.0,SSE,2.3,-,N/A,,Clear,160,2013-05-25 06:58:00